Retour au catalogue

COSMOS 1940

ActifMilitaireGEO
NORAD 19073·PAYLOAD·🇷🇺 Russia

Lancé Apr 26, 1988 depuis Baikonur Cosmodrome

Loading…

TLE

FraisSource: Space-Track

Époque: Sep 14, 2026, 04:32 UTC

1 19073U 88034A   26257.18934340 -.00000223  00000-0  00000-0 0  9995
2 19073  10.8487 325.9943 0022150 295.8985  64.1193  1.00673366122248

Suivez COSMOS 1940 en temps réel avec AllMySat

Download on the App Store